When you browse on this site, cookies collect data to enhance your experience and personalize the content and advertising you see.
Visit our Privacy Policy to learn more. By continuing to use the site, you agree to this use of cookies and data.
  • en France
  • Liste des pays
  • À 7 jours
  • Température de l'eau
  • Carte satellitaire
  • Carte météo
  • Widgets météo
  • user-avatar
    Se connecter

    Météo par heure à Georgetown

    Ce jour, 24 Mai, Vendredi

    Heure Température Précipitation Vent Pression Humidité
    00:00 +33°C° 0 mm 4 m/s 731 mmHg 32%
    01:00 +33°C° 0 mm 5 m/s 731 mmHg 31%
    02:00 +32°C° 0 mm 5 m/s 731 mmHg 28%
    03:00 +32°C° 0 mm 4 m/s 730 mmHg 24%
    04:00 +30°C° 0 mm 4 m/s 730 mmHg 21%
    05:00 +32°C° 0 mm 4 m/s 731 mmHg 21%
    06:00 +32°C° 0 mm 4 m/s 731 mmHg 21%
    07:00 +33°C° 0 mm 4 m/s 731 mmHg 21%
    08:00 +35°C° 0 mm 4 m/s 731 mmHg 20%
    09:00 +37°C° 0 mm 4 m/s 731 mmHg 19%
    10:00 +41°C° 0 mm 4 m/s 731 mmHg 18%
    11:00 +40°C° 0 mm 3 m/s 731 mmHg 18%
    12:00 +40°C° 0 mm 3 m/s 730 mmHg 19%
    13:00 +40°C° 0 mm 3 m/s 730 mmHg 19%
    14:00 +40°C° 0 mm 3 m/s 730 mmHg 19%
    15:00 +40°C° 0 mm 3 m/s 729 mmHg 19%
    16:00 +40°C° 0 mm 3 m/s 728 mmHg 19%
    17:00 +38°C° 0 mm 3 m/s 728 mmHg 21%
    18:00 +36°C° 0 mm 3 m/s 728 mmHg 23%
    19:00 +34°C° 0 mm 3 m/s 728 mmHg 24%
    20:00 +34°C° 0 mm 3 m/s 729 mmHg 24%
    21:00 +33°C° 0 mm 3 m/s 729 mmHg 24%
    22:00 +31°C° 0 mm 3 m/s 730 mmHg 24%
    23:00 +31°C° 0 mm 2 m/s 730 mmHg 24%

    Demain, 25 Mai, Samedi

    Heure Température Précipitation Vent Pression Humidité
    00:00 +31°C° 0 mm 2 m/s 730 mmHg 24%
    01:00 +30°C° 0 mm 2 m/s 729 mmHg 24%
    02:00 +30°C° 0 mm 2 m/s 729 mmHg 24%
    03:00 +30°C° 0 mm 2 m/s 729 mmHg 24%
    04:00 +30°C° 0 mm 2 m/s 729 mmHg 24%
    05:00 +31°C° 0 mm 2 m/s 729 mmHg 24%
    06:00 +32°C° 0 mm 2 m/s 730 mmHg 23%
    07:00 +34°C° 0 mm 3 m/s 730 mmHg 23%
    08:00 +35°C° 0 mm 2 m/s 730 mmHg 23%
    09:00 +37°C° 0 mm 2 m/s 731 mmHg 23%
    10:00 +37°C° 0 mm 1 m/s 731 mmHg 23%
    11:00 +39°C° 0 mm 3 m/s 730 mmHg 22%
    12:00 +40°C° 0 mm 4 m/s 730 mmHg 21%
    13:00 +41°C° 0 mm 6 m/s 730 mmHg 20%
    14:00 +40°C° 0 mm 5 m/s 729 mmHg 19%
    15:00 +40°C° 0 mm 5 m/s 728 mmHg 19%
    16:00 +38°C° 0 mm 4 m/s 728 mmHg 19%
    17:00 +37°C° 0 mm 4 m/s 728 mmHg 21%
    18:00 +36°C° 0 mm 3 m/s 728 mmHg 22%
    19:00 +34°C° 0 mm 3 m/s 728 mmHg 24%
    20:00 +34°C° 0 mm 3 m/s 729 mmHg 24%
    21:00 +34°C° 0 mm 3 m/s 729 mmHg 25%
    22:00 +33°C° 0 mm 3 m/s 730 mmHg 25%
    23:00 +32°C° 0 mm 2 m/s 730 mmHg 26%

    Après-demain, 26 Mai, Dimanche

    Heure Température Précipitation Vent Pression Humidité
    00:00 +31°C° 0 mm 2 m/s 729 mmHg 28%
    01:00 +30°C° 0 mm 2 m/s 729 mmHg 29%
    02:00 +30°C° 0 mm 1 m/s 729 mmHg 30%
    03:00 +30°C° 0 mm 1 m/s 729 mmHg 30%
    04:00 +30°C° 0 mm 1 m/s 729 mmHg 31%
    05:00 +30°C° 0 mm 3 m/s 729 mmHg 32%
    06:00 +32°C° 0 mm 5 m/s 730 mmHg 33%
    07:00 +33°C° 0 mm 7 m/s 730 mmHg 35%
    08:00 +33°C° 0 mm 7 m/s 730 mmHg 41%
    09:00 +34°C° 0 mm 6 m/s 731 mmHg 47%
    10:00 +34°C° 0 mm 6 m/s 731 mmHg 54%
    11:00 +35°C° 0 mm 6 m/s 730 mmHg 51%
    12:00 +36°C° 0 mm 5 m/s 730 mmHg 48%
    13:00 +37°C° 0 mm 4 m/s 729 mmHg 45%
    14:00 +37°C° 0 mm 3 m/s 729 mmHg 42%
    15:00 +38°C° 0 mm 3 m/s 728 mmHg 40%
    16:00 +38°C° 0 mm 2 m/s 727 mmHg 37%
    17:00 +35°C° 0 mm 1 m/s 727 mmHg 39%
    18:00 +33°C° 0 mm 1 m/s 728 mmHg 42%
    19:00 +29°C° 0 mm 0 m/s 728 mmHg 44%
    20:00 +31°C° 0 mm 1 m/s 728 mmHg 42%
    21:00 +31°C° 0 mm 1 m/s 728 mmHg 41%
    22:00 +31°C° 0 mm 1 m/s 729 mmHg 39%
    23:00 +32°C° 0 mm 1 m/s 728 mmHg 36%

    27 Mai, Lundi

    Heure Température Précipitation Vent Pression Humidité
    00:00 +32°C° 0 mm 1 m/s 728 mmHg 33%
    01:00 +34°C° 0 mm 2 m/s 728 mmHg 29%
    02:00 +34°C° 0 mm 4 m/s 728 mmHg 29%
    03:00 +34°C° 0 mm 6 m/s 728 mmHg 29%
    04:00 +34°C° 0 mm 8 m/s 728 mmHg 29%
    05:00 +33°C° 0 mm 8 m/s 728 mmHg 41%
    06:00 +32°C° 0 mm 8 m/s 729 mmHg 52%
    07:00 +30°C° 0 mm 7 m/s 729 mmHg 63%
    08:00 +32°C° 0 mm 7 m/s 730 mmHg 61%
    09:00 +33°C° 0 mm 7 m/s 730 mmHg 58%
    10:00 +34°C° 0 mm 7 m/s 731 mmHg 55%
    11:00 +35°C° 0 mm 6 m/s 730 mmHg 52%
    12:00 +36°C° 0 mm 5 m/s 729 mmHg 50%
    13:00 +37°C° 0 mm 4 m/s 729 mmHg 47%
    14:00 +37°C° 0 mm 3 m/s 728 mmHg 46%
    15:00 +37°C° 0 mm 3 m/s 728 mmHg 45%
    16:00 +37°C° 0 mm 2 m/s 727 mmHg 45%
    17:00 +36°C° 0 mm 2 m/s 727 mmHg 47%
    18:00 +35°C° 0 mm 2 m/s 728 mmHg 49%
    19:00 +34°C° 0 mm 2 m/s 728 mmHg 51%
    20:00 +34°C° 0 mm 2 m/s 728 mmHg 49%
    21:00 +34°C° 0 mm 3 m/s 729 mmHg 48%
    22:00 +33°C° 0 mm 3 m/s 729 mmHg 46%
    23:00 +33°C° 0 mm 3 m/s 729 mmHg 44%

    28 Mai, Mardi

    Heure Température Précipitation Vent Pression Humidité
    00:00 +33°C° 0 mm 3 m/s 729 mmHg 42%
    01:00 +33°C° 0 mm 3 m/s 728 mmHg 39%
    02:00 +33°C° 0 mm 4 m/s 728 mmHg 43%
    03:00 +33°C° 0 mm 6 m/s 729 mmHg 47%
    04:00 +33°C° 0 mm 7 m/s 729 mmHg 51%
    05:00 +32°C° 0 mm 7 m/s 729 mmHg 55%
    06:00 +32°C° 0 mm 7 m/s 730 mmHg 60%
    07:00 +32°C° 0 mm 7 m/s 731 mmHg 64%
    08:00 +32°C° 0 mm 7 m/s 731 mmHg 62%
    09:00 +33°C° 0 mm 6 m/s 731 mmHg 60%
    10:00 +34°C° 0 mm 6 m/s 732 mmHg 58%
    11:00 +35°C° 0 mm 5 m/s 731 mmHg 54%
    12:00 +36°C° 0 mm 5 m/s 730 mmHg 51%
    13:00 +36°C° 0 mm 4 m/s 730 mmHg 48%
    14:00 +37°C° 0 mm 4 m/s 729 mmHg 47%
    15:00 +37°C° 0 mm 3 m/s 729 mmHg 46%
    16:00 +37°C° 0 mm 2 m/s 728 mmHg 45%
    17:00 +36°C° 0 mm 2 m/s 728 mmHg 47%
    18:00 +35°C° 0 mm 2 m/s 729 mmHg 50%
    19:00 +33°C° 0 mm 1 m/s 729 mmHg 52%
    20:00 +34°C° 0 mm 2 m/s 729 mmHg 51%
    21:00 +34°C° 0 mm 2 m/s 729 mmHg 50%
    22:00 +34°C° 0 mm 2 m/s 730 mmHg 50%
    23:00 +34°C° 0 mm 3 m/s 729 mmHg 50%

    29 Mai, Mercredi

    Heure Température Précipitation Vent Pression Humidité
    00:00 +34°C° 0 mm 3 m/s 729 mmHg 50%
    01:00 +34°C° 0 mm 4 m/s 729 mmHg 50%
    02:00 +33°C° 0.1 mm 4 m/s 729 mmHg 53%
    03:00 +32°C° 0.1 mm 5 m/s 730 mmHg 57%
    04:00 +30°C° 0.1 mm 6 m/s 730 mmHg 61%
    05:00 +30°C° 0 mm 6 m/s 730 mmHg 59%
    06:00 +32°C° 0 mm 6 m/s 731 mmHg 58%
    07:00 +32°C° 0 mm 6 m/s 731 mmHg 56%
    08:00 +33°C° 0 mm 6 m/s 731 mmHg 56%
    09:00 +33°C° 0 mm 5 m/s 732 mmHg 55%
    10:00 +34°C° 0 mm 5 m/s 732 mmHg 55%
    11:00 +34°C° 0 mm 5 m/s 732 mmHg 53%
    12:00 +35°C° 0 mm 4 m/s 731 mmHg 51%
    13:00 +35°C° 0 mm 4 m/s 731 mmHg 50%
    14:00 +35°C° 0 mm 5 m/s 731 mmHg 51%
    15:00 +35°C° 0 mm 5 m/s 730 mmHg 52%
    16:00 +35°C° 0 mm 6 m/s 730 mmHg 54%
    17:00 +34°C° 0 mm 6 m/s 730 mmHg 58%
    18:00 +32°C° 0 mm 6 m/s 730 mmHg 63%
    19:00 +30°C° 0 mm 7 m/s 730 mmHg 67%
    20:00 +30°C° 0 mm 6 m/s 731 mmHg 66%
    21:00 +30°C° 0 mm 5 m/s 731 mmHg 65%
    22:00 +30°C° 0 mm 5 m/s 731 mmHg 64%
    23:00 +30°C° 0 mm 5 m/s 731 mmHg 63%
    Voir plus